Flag for Canada Weather past 2 weeks in Corner Brook, Newfoundland and Labrador, Canada

Now
52 °F

Drizzle. Mostly cloudy.


Feels Like: 52 °F
Forecast: 50 / 61 °F
Wind: No wind

Location: Deer Lake

Current Time: May 27, 2015 at 1:59:22 AM

Latest Report: May 27, 2015 at 1:20 AM


Visibility: 10 mi

Pressure: 29.94 "Hg

Humidity: 100%

Dew point: 52 °F

Location of Corner BrookLocation

Historic Weather in Corner Brook — Graph

°F

Corner Brook temperature yesterday

Maximum temperature yesterday: 77 °F (at 1:30 PM)
Minimum temperature yesterday: 39 °F (at 5:30 AM)
Average temperature yesterday: 55 °F

Past Weeks' High & Low Weather Summary

 TemperatureHumidityPressure
High77 °F (May 26, 1:30 PM)100% (May 12, 7:30 PM)30.46 "Hg (May 12, 7:30 PM)
Low25 °F (May 14, 5:30 AM)19% (May 25, 4:30 PM)29.32 "Hg (May 21, 1:30 AM)
Average47 °F69%29.94 "Hg
* Reported May 12 12:30 AM — May 27 12:30 AM, Corner Brook, Weather by CustomWeather, © 2015

Note: Actual official high and low records may vary slightly from our data, if they occured in-between our weather recording intervals... More about our weather records

Advertising

Corner Brook weather history for previous 24 hours

 ConditionsComfort  
Time TempWeatherWind HumidityBarometerVisibility
12:30 AM
Wed, May 27
52 °FLight rain. Fog.3 mph100%29.94 "Hg6 mi
11:30 PM
Tue, May 26
52 °FLight rain. Fog.8 mph100%29.95 "Hg6 mi
10:30 PM54 °FLight rain. Fog.2 mph94%29.96 "Hg6 mi
9:30 PM55 °FLight rain. Fog.6 mph94%29.96 "Hg6 mi
8:30 PM57 °FLight rain. Fog.8 mph88%29.98 "Hg5 mi
7:30 PM57 °FLight rain. Fog.5 mph94%30.02 "Hg6 mi
6:30 PM57 °FLight rain. Fog.2 mph100%30.05 "Hg6 mi
5:30 PM57 °FLight rain. Fog.8 mph94%30.07 "Hg5 mi
4:30 PM63 °FSprinkles. Cloudy.15 mph68%30.06 "Hg12 mi
3:30 PM68 °FSprinkles. More clouds than sun.16 mph56%30.06 "Hg15 mi
3:17 PM66 °FSprinkles. More clouds than sun.16 mph56%30.06 "Hg15 mi
2:30 PM73 °FMore clouds than sun.24 mph44%30.04 "Hg15 mi
1:30 PM77 °FBroken clouds.9 mph42%30.03 "Hg15 mi
12:30 PM72 °FBroken clouds.8 mph47%30.06 "Hg15 mi
11:30 AM70 °FPartly sunny.6 mph46%30.07 "Hg15 mi
10:30 AM63 °FPartly sunny.No wind59%30.09 "Hg15 mi
9:30 AM54 °FPartly sunny.No wind67%30.10 "Hg15 mi
8:30 AM50 °FPartly sunny.2 mph67%30.11 "Hg15 mi
7:30 AM45 °FPartly sunny.No wind81%30.11 "Hg15 mi
6:30 AM43 °FPartly sunny.No wind87%30.10 "Hg15 mi
5:30 AM39 °FPassing clouds.2 mph93%30.10 "Hg15 mi
4:30 AM41 °FPassing clouds.5 mph93%30.09 "Hg15 mi
3:30 AM45 °FPassing clouds.3 mph87%30.09 "Hg15 mi
2:30 AM41 °FPartly cloudy.6 mph93%30.09 "Hg15 mi
1:30 AM43 °FPartly cloudy.2 mph87%30.09 "Hg15 mi
Weather by CustomWeather, © 2015

See weather overviewHow to use our weather pages